Regional Weather Roundup
Issued by NWS

Home | Current Version | Previous Version | Graphics & Text | Print | Product List | Glossary On
Versions: 1 2 3 4 5 6 7 8 9 10 11 12 13 14 15 16 17 18 19 20 21 22 23 24 25 26 27 28 29 30 31 32 33 34 35 36 37 38 39 40 41 42 43 44 45 46 47 48 49 50
000
ASUS45 KPSR 200000
RWRAZ

PRELIMINARY ARIZONA REGIONAL HOURLY WEATHER ROUNDUP
NATIONAL WEATHER SERVICE PHOENIX AZ
500 PM MST FRI DEC 19 2014

NOTE: FAIR INDICATES FEW OR NO CLOUDS BELOW 12,000 FEET WITH NO
SIGNIFICANT WEATHER AND/OR OBSTRUCTIONS TO VISIBILITY.

AZZ001>003-036-200100-
NORTHWEST ARIZONA

CITY           SKY/WX    TMP DP  RH WIND       PRES   REMARKS
KINGMAN        CLEAR     50  32  50 SW8       30.17S
6HR MIN TEMP:  46; 6HR MAX TEMP:  55;

$$

AZZ004>008-015-016-018-200100-
NORTH CENTRAL ARIZONA

CITY           SKY/WX    TMP DP  RH WIND       PRES   REMARKS
GRAND CANYON   CLEAR     39  27  62 W3        30.20R
6HR MIN TEMP:  38; 6HR MAX TEMP:  43;

PRESCOTT       CLEAR     47  23  38 NE5       30.17F
6HR MIN TEMP:  42; 6HR MAX TEMP:  50;

FLAGSTAFF      NOT AVBL
PAYSON         MOCLDY    46  30  53 VRB5      30.19R
PAGE           CLEAR     43  30  60 CALM      30.20S
6HR MIN TEMP:  39; 6HR MAX TEMP:  45;

$$

AZZ009>014-017-200100-
NORTHEAST ARIZONA

CITY           SKY/WX    TMP DP  RH WIND       PRES   REMARKS
WINSLOW        NOT AVBL
SAINT JOHNS    CLEAR     39  29  67 N5        30.18S
6HR MIN TEMP:  35; 6HR MAX TEMP:  43;

WINDOW ROCK    PTCLDY    34  28  79 S7        30.18R WCI  28
6HR MIN TEMP:  34; 6HR MAX TEMP:  44;

SHOW LOW       CLEAR     36  23  60 NE7       30.20S WCI  30
$$

AZZ023-200100-
GREATER PHOENIX AREA

CITY           SKY/WX    TMP DP  RH WIND       PRES   REMARKS
PHOENIX        MOCLDY    63  35  35 NW10      30.12S
6HR MIN TEMP:  56; 6HR MAX TEMP:  64;

BUCKEYE        CLEAR     63  39  42 CALM      30.14F
GLENDALE       MOCLDY    63  37  39 CALM      30.14F
LUKE AFB       CLEAR     62  40  43 CALM      30.12F
6HR MIN TEMP:  55; 6HR MAX TEMP:  63;

DEER VALLEY    PTCLDY    60  35  39 NW3       30.12F
6HR MIN TEMP:  53; 6HR MAX TEMP:  61;

SCOTTSDALE     PTCLDY    61  36  39 NW3       30.14F
6HR MIN TEMP:  54; 6HR MAX TEMP:  63;

MESA-GATEWAY   PTCLDY    59  39  47 NW5       30.15R
CHANDLER       PTCLDY    61  39  44 W10       30.14R
$$

AZZ027-028-200100-
SOUTHWEST MARICOPA COUNTY AND PINAL COUNTY

CITY           SKY/WX    TMP DP  RH WIND       PRES   REMARKS
CASA GRANDE    PTCLDY    59  39  47 CALM      30.14R
6HR MIN TEMP:  48; 6HR MAX TEMP:  61;

GILA BEND      PTCLDY    62  40  44 N6        30.14F
6HR MIN TEMP:  56; 6HR MAX TEMP:  65;

$$

AZZ503-504-507>509-200100-
SOUTHEAST ARIZONA

CITY           SKY/WX    TMP DP  RH WIND       PRES   REMARKS
TUCSON         CLEAR     59  36  42 NW5       30.12S
6HR MIN TEMP:  51; 6HR MAX TEMP:  61;

DAVIS-MONTHAN  CLEAR     57  37  47 NW5       30.10R
6HR MIN TEMP:  49; 6HR MAX TEMP:  58;

RYAN FIELD       N/A     59  46  63 NW9       30.13R
NOGALES        CLEAR     55  35  47 W8        30.09S
6HR MIN TEMP:  42; 6HR MAX TEMP:  58;

SIERRA VISTA   PTCLDY    50  30  46 NE6       30.12F
SAFFORD        CLEAR     50  36  58 CALM      30.13F
6HR MIN TEMP:  38; 6HR MAX TEMP:  51;

$$

AZZ020-021-025-026-031-200100-
SOUTHWEST ARIZONA

CITY           SKY/WX    TMP DP  RH WIND       PRES   REMARKS
YUMA           PTCLDY   N/A  37 N/A CALM      30.13S
$$

CAZ031-033-041-043-047-048-061-200100-
SOUTHERN CALIFORNIA

CITY           SKY/WX    TMP DP  RH WIND       PRES   REMARKS
DOWNTOWN L.A.  CLOUDY    61  51  70 W5        30.15R
6HR MIN TEMP:  60; 6HR MAX TEMP:  66;

L.A. AIRPORT   MOCLDY    60  52  74 SW3       30.14F
6HR MIN TEMP:  59; 6HR MAX TEMP:  63;

SAN DIEGO      CLOUDY    63  51  65 NW8       30.16F
6HR MIN TEMP:  63; 6HR MAX TEMP:  68;

BURBANK        MOCLDY    62  48  60 S5        30.14R
6HR MIN TEMP:  56; 6HR MAX TEMP:  64;

ONTARIO        CLOUDY    62  43  49 W3        30.14F
6HR MIN TEMP:  57; 6HR MAX TEMP:  64;

RIVERSIDE      CLOUDY    61  43  51 W3        30.14F
6HR MIN TEMP:  55; 6HR MAX TEMP:  64;

PALM SPRINGS   MOCLDY    64  37  36 SE3       30.16F
6HR MIN TEMP:  60; 6HR MAX TEMP:  67;

EL CENTRO NAS  MOCLDY    66  40  38 NE6       30.14S
6HR MIN TEMP:  56; 6HR MAX TEMP:  68;

IMPERIAL       PTCLDY    65  41  41 NW5       30.13S
6HR MIN TEMP:  57; 6HR MAX TEMP:  67;

BLYTHE         CLEAR     62  44  51 CALM      30.16S
6HR MIN TEMP:  53; 6HR MAX TEMP:  63;

$$

NVZ020-UTZ003-200100-
SOUTHERN NEVADA-UTAH

CITY           SKY/WX    TMP DP  RH WIND       PRES   REMARKS
LAS VEGAS      NOT AVBL
SALT LAKE CITY MOCLDY    44  25  47 S10       30.09F
6HR MIN TEMP:  41; 6HR MAX TEMP:  47;

$$

NMZ009-TXZ055-200100-
NEW MEXICO-WEST TEXAS

CITY           SKY/WX    TMP DP  RH WIND       PRES   REMARKS
ALBUQUERQUE    PTCLDY    41  23  48 NW12      30.17S
6HR MIN TEMP:  40; 6HR MAX TEMP:  45;

EL PASO        PTCLDY    52  31  44 W5        30.13S
6HR MIN TEMP:  47; 6HR MAX TEMP:  55;

$$


........................KEY........................
SKY/WX - SKY CONDITION/WEATHER
TMP    - TEMPERATURE IN FAHRENHEIT
DP     - DEW POINT IN FAHRENHEIT
RH     - RELATIVE HUMIDITY IN PERCENT
WIND   - DIRECTION AND SPEED IN MILES PER HOUR (MPH)
VRB    - VARIABLE WIND DIRECTION
PRES   - MEAN SEA LEVEL PRESSURE IN INCHES OF MERCURY
         F - FALLING PRESSURE   R - RISING PRESSURE
         S - STEADY PRESSURE
VSB    - VISIBILITY IN MILES
HX     - HEAT INDEX IN FAHRENHEIT
WCI    - WIND CHILL INDEX IN FAHRENHEIT
TC     - TEMPERATURE IN CELSIUS WHICH IS ALSO KNOWN AS
         TEMPERATURE IN CENTIGRADE
AFB    - AIR FORCE BASE
         LUKE AFB IS LUKE AIR FORCE BASE
         DAVIS-MONTHAN IS DAVIS-MONTHAN AIR FORCE BASE
NAS    - NAVAL AIR STATION
         EL CENTRO NAS IS EL CENTRO NAVAL AIR STATION
N/A    - NOT AVAILABLE



USA.gov is the U.S. government's official web portal to all federal, state and local government web resources and services.